Find Starlink 35906

NORAD ID: 67112 Int'l Des: 2025-299 Owner: SPXS Country: US Constellation: starlink operational
LEOCIRCULAR

当前视图

正在加载3D地球...

关于 Starlink 35906

正在加载描述...

即将过境

Passes for default location (London). Set your location on the main map for personalized predictions.

高度历史

Loading altitude history...

两行轨道根数

1 67112U 25299L 26146.24074992 .00020609 00000-0 75536-3 0 9996
2 67112 43.0026 91.2821 0001479 261.3119 98.7565 15.27622187 24974
Epoch: May 26, 2026 • Age: 15 hours

当前状态

高度 483.4 km
速度 7.63 km/s
星下点 -5.98°S, 78.9°E
发射日期 Dec 15, 2025
运行时间 0.4 years
类型 internet

技术详情

分类 Payload
质量 575.00 kg
干质量 530.00 kg
总质量 575.00 kg
长度 0.30 m
直径 4.10 m
跨度 29.00 m
形状 Box + pan
制造商 SPXS
平台类型 Starlink V2MO
阶段状态 In Orbit
所有者/国家 SPXS/US

Most Searched